Location: Potawatomi Wildlife Park
(41.2308°N, 86.1050°W)
Time: 16:37:55
(UTC-04:00)

Daily predictions for brighter satellites

Satellite Brightness Start Highest point End
(mag) Time Altitude Azimuth Time Altitude Azimuth Time Altitude Azimuth
Cosmos 2360 4.3 21:26:16 10° NNW 21:32:01 77° ENE 21:37:43 10° SSE
Tsikada Rocket 4.3 21:25:50 10° N 21:32:06 52° ENE 21:38:19 10° SSE
Cosmos 1725 Rocket 4.1 21:29:13 10° S 21:35:16 63° E 21:41:24 10° NNE
NOSS 3-2 (A) 3.5 21:33:29 10° SSW 21:39:09 57° ESE 21:45:27 10° NE
USA 234 3.3 21:34:09 10° NE 21:40:42 66° SE 21:47:13 10° SW
Shenzhou-11 Module 2.3 21:38:41 10° W 21:41:38 64° N 21:44:36 10° ENE
NOSS 3-2 (C) 3.7 21:38:27 10° S 21:43:56 44° ESE 21:49:57 10° NE
H-2A R/B 3.2 21:42:04 10° ESE 21:46:03 25° ENE 21:50:06 10° NNE
YAOGAN 6 3.7 21:44:44 10° S 21:48:19 46° W 21:51:54 10° NNW
Cosmos 1697 Rocket 3.7 21:43:05 10° NW 21:48:26 45° WSW 21:53:46 10° S
Cosmos 1898 Rocket 4.2 21:44:08 10° N 21:49:06 40° ENE 21:53:56 11° SE
Cosmos 1184 Rocket 4.3 21:46:03 10° SSW 21:49:15 42° WNW 21:52:29 10° N
DNEPR-1 R/B 3.5 21:46:44 10° SSW 21:50:57 83° ESE 21:55:41 10° NE
ERS-1 Rocket 4.3 21:48:03 10° ESE 21:51:59 24° ENE 21:55:57 10° NNE
Cosmos 1500 3.9 21:48:52 10° NNW 21:52:40 58° W 21:56:27 10° S
Cosmos 2208 Rocket 4.0 21:48:22 10° S 21:53:26 59° ESE 21:58:31 10° NNE
Cosmos 2360 Rocket 3.9 21:54:05 10° N 21:58:07 20° NE 22:02:08 10° E
Cosmos 1378 Rocket 3.5 21:54:43 10° S 21:59:03 89° E 22:03:23 10° N
Cosmos 1674 Rocket 4.5 21:55:41 10° SSW 22:00:02 53° W 22:04:26 10° N
Cosmos 1975 Rocket 3.5 21:56:12 10° SSE 22:00:16 41° E 22:04:20 10° NNE
Okean 1 Rocket 3.0 21:56:24 10° N 22:00:47 89° W 22:05:06 10° S
Cosmos 1980 Rocket 2.6 21:55:42 10° NNW 22:01:17 62° WSW 22:06:52 10° S
ATLAS CENTAUR R/B 4.1 21:56:30 10° SSW 22:02:28 66° ESE 22:20:36 10° NE
COSMOS 2487 3.8 21:59:31 10° SW 22:02:51 42° WNW 22:06:14 10° N
Cosmos 1242 Rocket 3.1 21:59:34 10° N 22:03:04 40° ENE 22:05:48 15° SE
Okean 1 3.4 22:00:40 10° S 22:04:43 82° W 22:08:48 10° N
Cosmos 1666 2.8 22:03:41 10° N 22:07:32 61° E 22:10:56 13° SSE
Terra 4.0 22:09:04 10° ENE 22:10:18 11° ENE 22:11:31 10° NE
CENTAUR R/B 3.1 22:06:05 10° S 22:11:08 31° ESE 22:16:46 10° NE
Lacrosse 5 rocket 3.7 22:10:20 10° NNW 22:13:19 18° NNE 22:16:12 10° ENE
CZ-4B DEB 4.4 22:11:01 12° SSE 22:14:11 87° ENE 22:17:40 10° N
ERS-2 4.0 22:11:00 10° SSW 22:14:15 29° W 22:17:32 10° NW
Cosmos 1743 2.7 22:10:43 10° N 22:14:33 69° E 22:17:40 15° SSE
deb Kosmos-1763 4.0 22:11:48 10° S 22:15:27 63° ESE 22:19:07 10° NNE
Cosmos 2233 Rocket 3.9 22:10:32 10° S 22:16:39 83° E 22:22:52 10° N
Resurs 01 Rocket 3.0 22:14:08 10° SSW 22:18:13 37° W 22:22:20 10° NNW
ISS -2.6 22:17:48 10° WSW 22:20:58 45° NNW 22:24:08 10° NE
ATLAS 3B R/B 3.5 22:15:53 10° SW 22:22:57 58° NW 22:29:46 10° NNE
BREEZE-M DEB (TANK) 2.7 22:22:15 10° WNW 22:24:35 24° SW 22:25:21 19° S
Iridium 2 3.7 22:21:42 14° S 22:24:49 62° E 22:28:37 10° N
Helios 1A 4.2 22:22:56 18° ESE 22:25:00 27° ENE 22:28:30 10° N
Meteor 2-4 Rocket 3.9 22:22:14 12° SSE 22:27:07 51° E 22:32:28 10° NNE
Abrixas rocket 2.1 22:27:10 10° WSW 22:30:23 89° NNW 22:33:38 10° ENE
MetOp-A 4.1 22:26:41 15° SSE 22:31:08 82° ENE 22:36:31 10° NNW
SJ 16-02 3.2 22:30:01 10° NNE 22:33:10 19° ENE 22:35:06 15° E
Aureole 2 Rocket 3.4 22:31:48 10° N 22:34:18 24° ENE 22:34:51 22° E
Cosmos 2084 3.3 22:32:28 10° SSW 22:36:48 76° ESE 22:40:55 10° NE
Cosmos 1340 Rocket 3.1 22:38:31 25° SSE 22:40:34 49° E 22:44:32 10° NNE
Cosmos 2298 Rocket 4.1 22:35:45 10° NNW 22:41:02 64° ENE 22:44:05 25° SE
Tiangong 2 1.0 22:41:44 10° WSW 22:44:54 89° ENE 22:46:40 24° ENE
Timation 2 Rocket 4.3 22:43:57 10° SW 22:49:52 66° WNW 22:55:55 10° NNE
Cosmos 1937 Rocket 3.4 22:45:06 10° NNW 22:50:16 84° WSW 22:53:18 25° SSE
Cosmos 1515 4.1 22:49:22 35° SE 22:50:23 44° E 22:54:04 10° NNE
Cosmos 2322 Rocket 2.2 22:45:56 10° NNW 22:51:33 77° WSW 22:54:59 24° SSE
Meteor 1-13 Rocket 4.4 22:46:27 10° S 22:52:21 84° W 22:58:20 10° N
USA 32 4.0 22:47:19 10° N 22:52:35 83° E 22:55:51 24° S
Cosmos 292 Rocket 3.7 22:51:02 18° S 22:54:32 66° ESE 22:59:16 10° NNE
Cosmos 540 Rocket 3.8 22:54:43 29° SSE 22:56:48 43° ESE 23:01:40 10° NNE
ARGOS 3.6 22:53:03 16° S 22:57:16 57° W 23:02:37 10° NNW
Cosmos 1763 Rocket 3.7 22:53:38 10° SSW 22:58:56 73° WNW 23:04:14 10° NNE
SL-16 R/B 2.5 22:53:54 10° NNW 22:59:30 63° WSW 23:02:56 24° S
Cosmos 1513 Rocket 4.4 22:55:40 21° S 22:59:51 69° E 23:05:59 10° NNE
Cosmos 2034 Rocket 4.1 22:56:40 25° SSE 23:00:09 55° E 23:06:08 10° NNE
Helios 1B rocket 2.8 22:58:39 10° NNE 23:02:38 44° E 23:03:22 40° SE
Cosmos 841 Rocket 3.4 22:57:37 11° SSW 23:02:39 85° ESE 23:07:56 10° NNE
ATLAS CENTAUR R/B 4.2 23:01:27 10° W 23:03:37 13° WSW 23:05:49 10° SW
Meteor 1-15 Rocket 4.4 22:58:54 10° N 23:04:34 57° ENE 23:07:01 32° SE
Cosmos 1464 Rocket 4.0 22:59:58 17° S 23:05:02 84° E 23:11:27 10° N
CARTOSAT-1 4.3 23:05:34 32° ESE 23:06:38 38° ENE 23:10:39 10° N
IGS 5A 4.1 23:07:25 34° ESE 23:08:18 39° ENE 23:12:12 10° N
USA 245 3.4 23:09:36 41° SSW 23:10:33 60° W 23:14:33 10° NNW
Cosmos 2219 4.5 23:16:52 23° E 23:16:52 23° E 23:21:02 10° NE
Shenzhou-11 Module 2.2 23:14:49 10° WNW 23:17:27 65° WNW 23:17:27 65° WNW
Cosmos 372 Rocket 4.4 23:13:38 10° N 23:18:36 47° ENE 23:20:07 36° ESE
SPOT 1/Viking Rocket 3.5 23:19:06 37° SSE 23:21:15 86° WSW 23:26:27 10° NNW
USA 234 4.5 23:17:23 10° NE 23:23:29 43° NNW 23:29:35 10° W
H-2A R/B 3.1 23:22:15 19° SSW 23:25:15 37° W 23:29:54 10° NNW
Cosmos 1025 Rocket 3.3 23:25:46 48° ESE 23:26:03 48° E 23:30:16 10° NNE
Cosmos 1356 4.3 23:26:53 34° SW 23:27:55 46° WNW 23:31:18 10° N
Cosmos 1455 Rocket 4.0 23:24:10 10° NNW 23:28:16 41° W 23:30:11 26° SW
Landsat 7 3.7 23:27:10 46° SSE 23:28:35 89° WSW 23:33:23 10° NNW
ERS-1 Rocket 3.9 23:27:52 23° SSW 23:30:30 41° W 23:35:16 10° NNW
SPOT 5 2.9 23:30:59 41° SSW 23:32:17 60° W 23:36:46 10° NNW
CZ-4C R/B 3.5 23:32:36 10° NNW 23:39:30 49° NE 23:43:41 27° ESE
Meteor 1-29 3.0 23:36:09 10° N 23:39:27 77° NNW 23:39:27 77° NNW
Cosmos 2360 Rocket 2.3 23:37:02 10° NNW 23:42:39 68° WSW 23:44:22 44° S
Cosmos 1125 Rocket 3.5 23:39:17 10° NNW 23:44:33 75° ENE 23:45:40 55° SE
Terra 1.7 23:46:26 61° S 23:47:18 88° W 23:52:05 10° NNW
Cosmos 2219 Rocket 3.0 23:42:50 10° N 23:48:05 39° ENE 23:49:36 33° E
CZ-2C R/B 2.9 23:46:00 10° NNE 23:51:28 51° E 23:52:08 48° ESE
Lacrosse 5 rocket 1.3 23:48:56 10° NW 23:53:13 76° NE 23:53:13 76° NE
Cosmos 1544 3.8 23:50:20 10° N 23:53:19 45° NE 23:53:19 45° NE
